Home   Weather   Salem   Past weeks

Flag for USA Past Weather in Salem, Oregon, USA — Yesterday and Last 2 Weeks

Now
33 °F

Light snow. Mostly cloudy.


Feels Like: 26 °F
Forecast: 29 / 39 °F
Wind: 8 mph from North

Location: McNary Field

Current Time: Dec 8, 2016 at 10:21:17 am

Latest Report: Dec 8, 2016 at 9:56 am


Visibility: 2 mi

Pressure: 29.93 "Hg

Humidity: 75%

Dew Point: 26 °F

Location of SalemLocation

Past Weather in Salem — Graph

°F

Salem Temperature Yesterday

Maximum temperature yesterday: 39 °F (at 1:56 pm)
Minimum temperature yesterday: 29 °F (at 5:56 am)
Average temperature yesterday: 33 °F

High & Low Weather Summary for the Past Weeks

 TemperatureHumidityPressure
High55 °F (Nov 26, 2:56 pm)97% (Nov 25, 8:56 pm)30.41 "Hg (Nov 25, 8:56 pm)
Low29 °F (Dec 7, 5:56 am)55% (Nov 24, 5:56 am)29.41 "Hg (Nov 26, 2:56 pm)
Average44 °F83%30.07 "Hg
* Reported Nov 23 8:56 am — Dec 8 8:56 am, Salem, Weather by CustomWeather, © 2016

Note: Actual official high and low records may vary slightly from our data, if they occured in-between our weather recording intervals... More about our weather records

Advertising

Salem Weather History for the Previous 24 Hours

Scroll right to see more
 ConditionsComfort  
Time TempWeatherWind HumidityBarometerVisibility
8:56 am
Thu, Dec 8
33 °FLight snow. Overcast.7 mph70%29.93 "Hg4 mi
7:56 am34 °FOvercast.7 mph59%29.95 "Hg10 mi
6:56 am33 °FOvercast.7 mph61%29.96 "Hg10 mi
5:56 am32 °FPassing clouds.7 mph61%29.96 "Hg10 mi
4:56 am31 °FClear.7 mph64%29.97 "Hg10 mi
3:56 am32 °FClear.7 mph61%29.99 "Hg10 mi
2:56 am31 °FClear.7 mph64%30.02 "Hg10 mi
1:56 am31 °FClear.6 mph64%30.05 "Hg10 mi
12:56 am31 °FClear.6 mph67%30.07 "Hg10 mi
11:56 pm
Wed, Dec 7
31 °FClear.5 mph67%30.09 "Hg10 mi
10:56 pm30 °FClear.6 mph66%30.10 "Hg10 mi
9:56 pm31 °FClear.6 mph67%30.12 "Hg10 mi
8:56 pm32 °FClear.7 mph64%30.14 "Hg10 mi
7:56 pm32 °FClear.7 mph66%30.14 "Hg10 mi
6:56 pm32 °FClear.6 mph66%30.16 "Hg10 mi
5:56 pm33 °FClear.8 mph66%30.17 "Hg10 mi
4:56 pm35 °FClear.7 mph61%30.18 "Hg10 mi
3:56 pm38 °FSunny.12 mph60%30.19 "Hg10 mi
2:56 pm39 °FSunny.8 mph62%30.21 "Hg10 mi
1:56 pm39 °FSunny.7 mph62%30.24 "Hg10 mi
12:56 pm36 °FSunny.6 mph70%30.26 "Hg10 mi
11:56 am34 °FScattered clouds.7 mph73%30.29 "Hg10 mi
10:56 am32 °FScattered clouds.7 mph79%30.31 "Hg10 mi
Weather by CustomWeather, © 2016

See weather overviewHow to use our weather pages